Location: Arcusa
(42.3167°N, 0.0833°W)
Time: 06:42:59
(UTC+00:00)

USA 238 - Pass Details

Date: 25 January 2020
Orbit: 1023 x 1189 km, 63.4° (Epoch: 20 February)

Event Time Altitude Azimuth Distance (km) Brightness Sun altitude
Exits shadow 04:52:06 61° 285° (WNW) 1,301 3.7 -27.4°
Maximum altitude 04:53:11 69° 239° (WSW) 1,234 3.7 -27.2°
Drops below altitude 10° 05:00:33 10° 158° (SSE) 3,095 6.4 -25.8°
Sets 05:03:19 0° 156° (SSE) 4,063 7.1 -25.3°
